GW0484 Weather Reports


Display with metric or nautical units.
time (UTC)temp
F
wind
direction
speed
MPH
gust
MPH
rain 1hr
in
rain 24hr
in
rain mn
in
humidity
%
barometer
mb
20260831141438 55 275 6.0 7.0 0.00 0.00 0.00 67 1011.7
20260831140933 54 278 9.0 11.0 0.00 0.00 0.00 67 1011.6
20260831140427 53 294 6.0 7.0 0.00 0.00 0.00 69 1011.4
20260831135926 53 319 5.0 6.0 0.00 0.00 0.00 69 1011.7
20260831135425 53 279 6.0 7.0 0.00 0.00 0.00 69 1011.4
20260831134920 53 298 8.0 9.0 0.00 0.00 0.00 70 1011.5
20260831134417 53 264 7.0 8.0 0.00 0.00 0.00 69 1011.4
20260831133916 52 324 7.0 9.0 0.00 0.00 0.00 71 1011.4
20260831133411 51 324 6.0 8.0 0.00 0.00 0.00 72 1011.5
20260831132906 51 308 9.0 10.0 0.00 0.00 0.00 74 1011.5
20260831132402 50 288 4.0 7.0 0.00 0.00 0.00 76 1011.4
20260831131901 50 300 5.0 7.0 0.00 0.00 0.00 77 1011.4
20260831131357 49 330 5.0 6.0 0.00 0.00 0.00 77 1011.1
20260831130852 49 302 6.0 7.0 0.00 0.00 0.00 77 1011.1
20260831130348 49 328 7.0 9.0 0.00 0.00 0.00 78 1011.0
20260831125847 48 317 6.0 7.0 0.00 0.00 0.00 78 1010.8
20260831125342 47 297 4.0 5.0 0.00 0.00 0.00 80 1011.1
20260831124837 45 173 2.0 2.0 0.00 0.00 0.00 86 1010.7
20260831124333 45 125 0.0 0.0 0.00 0.00 0.00 84 1010.6
20260831123832 46 38 2.0 3.0 0.00 0.00 0.00 83 1010.7
20260831123326 47 77 1.0 1.0 0.00 0.00 0.00 81 1010.8
20260831122821 45 198 3.0 3.0 0.00 0.00 0.00 85 1010.5
20260831122317 44 132 0.0 0.0 0.00 0.00 0.00 86 1010.2
20260831121816 45 114 1.0 1.0 0.00 0.00 0.00 85 1010.4
20260831121313 45 171 1.0 2.0 0.00 0.00 0.00 85 1010.4
20260831120808 46 213 3.0 3.0 0.00 0.00 0.00 84 1010.6
20260831120302 46 205 2.0 2.0 0.00 0.00 0.00 84 1010.4
20260831115757 46 188 3.0 3.0 0.00 0.00 0.00 84 1010.3
20260831115254 46 194 3.0 3.0 0.00 0.00 0.00 84 1010.4
20260831114753 46 269 5.0 6.0 0.00 0.00 0.00 82 1010.0
20260831114253 46 262 5.0 6.0 0.00 0.00 0.00 82 1010.5
20260831113748 46 272 5.0 6.0 0.00 0.00 0.00 82 1010.3
20260831113242 46 260 5.0 6.0 0.00 0.00 0.00 82 1010.3
20260831112742 46 232 3.0 3.0 0.00 0.00 0.00 83 1010.4
20260831112237 46 124 1.0 2.0 0.00 0.00 0.00 82 1010.4
20260831111733 46 313 3.0 3.0 0.00 0.00 0.00 82 1010.3
20260831111229 47 198 3.0 3.0 0.00 0.00 0.00 81 1010.2
20260831110724 48 318 3.0 3.0 0.00 0.00 0.00 79 1010.3
20260831110220 48 291 5.0 6.0 0.00 0.00 0.00 78 1010.4
20260831105718 48 273 4.0 5.0 0.00 0.00 0.00 78 1010.2
20260831105214 49 313 7.0 8.0 0.00 0.00 0.00 77 1010.2
20260831104708 48 314 7.0 8.0 0.00 0.00 0.00 78 1010.0
20260831104205 48 284 6.0 7.0 0.00 0.00 0.00 77 1009.9
20260831103705 48 286 6.0 7.0 0.00 0.00 0.00 78 1010.0
20260831103201 47 312 5.0 6.0 0.00 0.00 0.00 80 1009.9
20260831102700 46 134 1.0 2.0 0.00 0.00 0.00 83 1009.9
20260831102155 45 114 0.0 0.0 0.00 0.00 0.00 83 1009.8
20260831101650 46 129 0.0 0.0 0.00 0.00 0.00 82 1009.9
20260831101146 46 127 0.0 1.0 0.00 0.00 0.00 80 1009.5
20260831100642 47 126 0.0 0.0 0.00 0.00 0.00 79 1009.5
20260831100138 48 126 0.0 0.0 0.00 0.00 0.00 78 1009.6
20260831095636 49 82 2.0 2.0 0.00 0.00 0.00 76 1009.9
20260831095131 50 123 0.0 0.0 0.00 0.00 0.00 74 1009.9
20260831094626 51 163 1.0 2.0 0.00 0.00 0.00 73 1009.5
20260831094123 51 260 2.0 3.0 0.00 0.00 0.00 71 1009.5
20260831093618 51 217 4.0 6.0 0.00 0.00 0.00 71 1009.4
20260831093114 51 264 6.0 7.0 0.00 0.00 0.00 71 1009.2
20260831092610 50 271 7.0 8.0 0.00 0.00 0.00 72 1009.2
20260831092105 48 267 4.0 5.0 0.00 0.00 0.00 75 1009.3
20260831091605 47 128 0.0 0.0 0.00 0.00 0.00 80 1009.4
20260831091100 48 128 0.0 0.0 0.00 0.00 0.00 80 1009.5
20260831090555 48 123 0.0 0.0 0.00 0.00 0.00 79 1009.4
20260831090052 48 82 2.0 2.0 0.00 0.00 0.00 80 1009.3
20260831085547 48 114 1.0 1.0 0.00 0.00 0.00 80 1009.3
20260831085042 48 111 1.0 1.0 0.00 0.00 0.00 80 1009.0
20260831084538 48 127 1.0 1.0 0.00 0.00 0.00 80 1009.0
20260831084034 49 136 0.0 0.0 0.00 0.00 0.00 78 1009.1
20260831083530 49 127 0.0 0.0 0.00 0.00 0.00 76 1009.2
20260831083024 50 128 0.0 0.0 0.00 0.00 0.00 75 1009.2
20260831082523 50 130 0.0 1.0 0.00 0.00 0.00 76 1009.0
20260831082019 50 136 0.0 0.0 0.00 0.00 0.00 75 1008.8
20260831081514 50 158 1.0 2.0 0.00 0.00 0.00 75 1009.0
20260831081010 50 215 3.0 3.0 0.00 0.00 0.00 77 1008.9
20260831080504 49 234 3.0 5.0 0.00 0.00 0.00 80 1008.7
20260831080000 49 246 5.0 6.0 0.00 0.00 0.00 80 1008.7
20260831075455 49 249 4.0 5.0 0.00 0.00 0.00 81 1008.7
20260831074951 49 230 3.0 3.0 0.00 0.00 0.00 79 1008.6
20260831074450 49 169 2.0 2.0 0.00 0.00 0.00 77 1008.7
20260831073945 49 203 3.0 3.0 0.00 0.00 0.00 77 1008.7
20260831073444 50 164 2.0 2.0 0.00 0.00 0.00 76 1008.7
20260831072944 50 236 4.0 5.0 0.00 0.00 0.00 75 1008.6
20260831072440 50 227 4.0 5.0 0.00 0.00 0.00 74 1008.8
20260831071937 50 249 5.0 6.0 0.00 0.00 0.00 74 1008.6
20260831071435 50 253 4.0 5.0 0.00 0.00 0.00 74 1008.7
20260831070930 51 234 5.0 6.0 0.00 0.00 0.00 74 1008.6
20260831070430 51 262 5.0 6.0 0.00 0.00 0.00 73 1008.7
20260831065929 52 260 7.0 7.0 0.00 0.00 0.00 71 1008.6
20260831065427 52 229 7.0 10.0 0.00 0.00 0.00 71 1008.4
20260831064922 51 246 6.0 7.0 0.00 0.00 0.00 72 1008.7
20260831064417 52 216 4.0 5.0 0.00 0.00 0.00 72 1008.8
20260831063913 53 251 5.0 6.0 0.00 0.00 0.00 70 1008.9
20260831063408 53 281 5.0 6.0 0.00 0.00 0.00 68 1009.0
20260831062902 53 276 6.0 8.0 0.00 0.00 0.00 68 1009.0
20260831062357 54 247 5.0 6.0 0.00 0.00 0.00 68 1009.0
20260831061855 54 243 5.0 7.0 0.00 0.00 0.00 66 1009.1
20260831061355 54 254 6.0 7.0 0.00 0.00 0.00 65 1009.1
20260831060851 54 275 7.0 9.0 0.00 0.00 0.00 65 1009.1
20260831060346 55 259 7.0 9.0 0.00 0.00 0.00 66 1009.0
20260831055845 55 287 8.0 10.0 0.00 0.06 0.06 65 1009.1
20260831055340 55 223 7.0 8.0 0.00 0.06 0.06 64 1009.0
20260831054836 55 249 7.0 8.0 0.00 0.06 0.06 64 1008.8
20260831054331 56 286 8.0 9.0 0.00 0.06 0.06 63 1008.9
20260831053830 56 284 6.0 7.0 0.00 0.06 0.06 62 1009.0
20260831053328 56 261 8.0 9.0 0.00 0.06 0.06 61 1008.7
20260831052823 56 291 7.0 8.0 0.00 0.06 0.06 62 1008.9
20260831052322 56 238 5.0 7.0 0.00 0.06 0.06 62 1008.9
20260831051821 56 263 7.0 8.0 0.00 0.06 0.06 61 1008.8
20260831051319 56 278 5.0 7.0 0.00 0.06 0.06 61 1008.8
20260831050814 56 281 7.0 8.0 0.00 0.06 0.06 60 1008.7
20260831050313 56 270 8.0 9.0 0.00 0.06 0.06 59 1008.7
20260831045808 57 298 9.0 10.0 0.00 0.06 0.06 58 1009.1
20260831045305 57 295 14.0 15.0 0.00 0.06 0.06 57 1009.0
20260831044757 57 293 11.0 14.0 0.00 0.06 0.06 57 1008.9
20260831044252 58 343 10.0 11.0 0.00 0.06 0.06 55 1008.7
20260831043748 58 292 10.0 13.0 0.00 0.06 0.06 54 1008.7
20260831043243 59 281 14.0 15.0 0.00 0.06 0.06 53 1008.7
20260831042742 59 285 22.0 25.0 0.00 0.06 0.06 51 1008.8
20260831042237 59 277 24.0 27.0 0.00 0.06 0.06 51 1008.4
20260831041732 59 263 15.0 16.0 0.00 0.06 0.06 52 1008.3
20260831041232 59 256 14.0 18.0 0.00 0.06 0.06 51 1008.7
20260831040726 60 266 16.0 21.0 0.00 0.06 0.06 51 1008.4
20260831040226 60 282 15.0 20.0 0.00 0.06 0.06 51 1008.7
20260831035719 60 278 17.0 21.0 0.00 0.06 0.06 51 1008.2
20260831035213 60 262 11.0 13.0 0.00 0.06 0.06 52 1008.7
20260831034712 60 287 16.0 23.0 0.00 0.06 0.06 50 1008.4
20260831034208 60 275 13.0 17.0 0.00 0.06 0.06 50 1008.7
20260831033703 60 291 15.0 20.0 0.00 0.06 0.06 51 1008.3
20260831033203 60 265 22.0 25.0 0.00 0.06 0.06 50 1008.4
20260831032658 60 261 19.0 24.0 0.00 0.06 0.06 49 1008.3
20260831032153 60 268 18.0 23.0 0.00 0.06 0.06 50 1008.3
20260831031648 60 277 14.0 20.0 0.00 0.06 0.06 50 1008.2
20260831031147 60 275 16.0 18.0 0.00 0.06 0.06 50 1008.1
20260831030646 60 264 10.0 11.0 0.00 0.06 0.06 51 1008.1
20260831030146 60 261 11.0 13.0 0.00 0.06 0.06 51 1008.0
20260831025644 60 290 9.0 14.0 0.00 0.06 0.06 52 1008.0
20260831025139 60 293 9.0 11.0 0.00 0.06 0.06 51 1008.0
20260831024635 60 237 11.0 14.0 0.00 0.06 0.06 51 1007.6
20260831024133 60 267 11.0 14.0 0.00 0.06 0.06 50 1007.8
20260831023631 60 268 11.0 13.0 0.00 0.06 0.06 51 1008.0
20260831023126 60 246 15.0 20.0 0.00 0.06 0.06 49 1007.6
20260831022621 60 246 11.0 13.0 0.00 0.06 0.06 50 1007.6
20260831022116 60 266 13.0 20.0 0.00 0.06 0.06 50 1007.5
20260831021614 61 279 13.0 16.0 0.00 0.06 0.06 49 1007.5
20260831021110 61 242 13.0 15.0 0.00 0.06 0.06 49 1007.5
20260831020606 61 288 13.0 15.0 0.00 0.06 0.06 50 1007.6
20260831015556 61 276 14.0 20.0 0.00 0.06 0.06 49 1007.5
20260831015051 61 285 16.0 20.0 0.00 0.06 0.06 49 1007.5
20260831014546 61 282 15.0 18.0 0.00 0.06 0.06 49 1007.3
20260831014041 62 280 20.0 24.0 0.00 0.06 0.06 48 1007.3
20260831013537 62 287 23.0 27.0 0.00 0.06 0.06 46 1007.3
20260831013032 62 266 15.0 22.0 0.00 0.06 0.06 47 1007.5
20260831012527 62 293 18.0 24.0 0.00 0.06 0.06 46 1007.3
20260831012026 63 254 18.0 21.0 0.00 0.06 0.06 46 1007.2
20260831011521 63 250 21.0 23.0 0.00 0.06 0.06 45 1007.3
20260831011017 62 277 17.0 18.0 0.00 0.06 0.06 47 1007.2
20260831010517 62 297 18.0 21.0 0.00 0.06 0.06 47 1007.2
20260831010013 63 291 19.0 24.0 0.00 0.06 0.06 46 1007.0
20260831005508 63 269 22.0 25.0 0.00 0.06 0.06 45 1007.5
20260831005007 63 279 20.0 25.0 0.00 0.06 0.06 45 1007.2
20260831004504 63 270 23.0 25.0 0.00 0.06 0.06 46 1007.2
20260831003959 63 283 19.0 22.0 0.00 0.06 0.06 46 1007.2
20260831003455 63 257 11.0 13.0 0.00 0.06 0.06 48 1007.7
20260831002954 63 272 30.0 37.0 0.00 0.06 0.06 45 1007.5
20260831002454 64 276 25.0 29.0 0.00 0.06 0.06 45 1007.5
20260831001949 64 303 13.0 16.0 0.00 0.06 0.06 45 1007.3
20260831001444 64 255 20.0 23.0 0.00 0.06 0.06 45 1007.2
20260831000941 63 287 22.0 27.0 0.00 0.06 0.06 45 1007.2
20260831000439 64 288 30.0 32.0 0.00 0.06 0.06 43 1007.2
20260830235935 64 276 20.0 27.0 0.00 0.06 0.06 44 1007.5
20260830235431 64 291 25.0 29.0 0.00 0.06 0.06 43 1007.2
20260830234926 64 290 25.0 33.0 0.00 0.06 0.06 43 1007.1
20260830234421 64 281 25.0 27.0 0.00 0.06 0.06 44 1007.1
20260830233917 65 268 25.0 27.0 0.00 0.06 0.06 43 1007.2
20260830233412 65 292 22.0 29.0 0.00 0.06 0.06 42 1007.1
20260830232907 65 271 24.0 30.0 0.00 0.06 0.06 43 1006.9
20260830232403 66 264 17.0 20.0 0.00 0.06 0.06 43 1006.9
20260830231900 66 293 20.0 27.0 0.00 0.06 0.06 42 1006.7
20260830231354 66 292 23.0 29.0 0.00 0.06 0.06 41 1006.7
20260830230854 66 271 18.0 22.0 0.00 0.06 0.06 43 1007.0
20260830230349 67 269 22.0 26.0 0.00 0.06 0.06 41 1006.9
20260830225848 66 285 21.0 25.0 0.00 0.06 0.06 42 1007.0
20260830225344 66 281 17.0 20.0 0.00 0.06 0.06 43 1007.2
20260830224839 66 279 24.0 29.0 0.00 0.06 0.06 42 1007.0
20260830224333 67 241 20.0 24.0 0.00 0.06 0.06 43 1006.8
20260830223830 66 263 23.0 29.0 0.00 0.06 0.06 42 1007.2
20260830223326 67 286 23.0 27.0 0.00 0.06 0.06 42 1007.0
20260830222825 66 242 17.0 24.0 0.00 0.06 0.06 44 1007.2
20260830222320 65 253 23.0 26.0 0.00 0.06 0.06 42 1007.2
20260830221815 64 229 9.0 11.0 0.00 0.06 0.06 47 1007.2
20260830221313 63 230 7.0 9.0 0.00 0.06 0.06 48 1007.2
20260830220812 63 232 9.0 9.0 0.00 0.06 0.06 48 1007.5
20260830220312 63 233 9.0 10.0 0.00 0.06 0.06 47 1007.6
20260830215810 63 225 7.0 9.0 0.00 0.06 0.06 48 1007.5
20260830215306 63 244 11.0 13.0 0.00 0.06 0.06 48 1007.8
20260830214800 63 233 7.0 9.0 0.00 0.06 0.06 49 1007.5
20260830214255 62 254 11.0 13.0 0.00 0.06 0.06 48 1007.8
20260830213754 62 240 10.0 13.0 0.00 0.06 0.06 49 1007.7
20260830213249 63 221 9.0 10.0 0.00 0.06 0.06 48 1007.6
20260830212745 63 219 11.0 11.0 0.00 0.06 0.06 49 1007.3
20260830212241 64 290 15.0 18.0 0.00 0.06 0.06 46 1007.8
20260830211740 64 238 17.0 22.0 0.00 0.06 0.06 46 1007.8
20260830211239 64 249 13.0 15.0 0.00 0.06 0.06 48 1007.9
20260830210736 63 244 13.0 15.0 0.00 0.06 0.06 46 1008.0
20260830210234 64 248 18.0 22.0 0.00 0.06 0.06 46 1008.1
20260830205732 64 256 10.0 13.0 0.00 0.06 0.06 48 1007.9
20260830205227 64 279 19.0 23.0 0.00 0.06 0.06 46 1007.9
20260830204722 64 240 20.0 23.0 0.00 0.06 0.06 44 1008.1
20260830204221 64 264 15.0 20.0 0.00 0.06 0.06 46 1008.0
20260830203717 64 276 17.0 18.0 0.00 0.06 0.06 46 1008.0
20260830203213 64 296 9.0 11.0 0.00 0.06 0.06 46 1007.9
20260830202712 63 227 11.0 14.0 0.00 0.06 0.06 49 1007.8
20260830202208 64 244 20.0 23.0 0.00 0.06 0.06 46 1008.1
20260830201707 63 284 14.0 18.0 0.00 0.06 0.06 50 1008.1
20260830201202 63 261 28.0 33.0 0.00 0.06 0.06 47 1008.2
20260830200658 65 279 20.0 25.0 0.00 0.06 0.06 46 1008.0
20260830200157 64 285 24.0 29.0 0.00 0.06 0.06 45 1008.0
20260830195652 64 270 22.0 24.0 0.00 0.06 0.06 46 1007.7
20260830195150 64 288 22.0 25.0 0.00 0.06 0.06 45 1007.5
20260830194650 64 277 14.0 16.0 0.00 0.06 0.06 45 1007.3
20260830194149 65 278 21.0 26.0 0.00 0.06 0.06 44 1007.8
20260830193645 65 258 13.0 20.0 0.00 0.06 0.06 44 1007.3
20260830193144 67 258 11.0 13.0 0.00 0.06 0.06 40 1007.2
20260830192640 67 254 13.0 18.0 0.00 0.06 0.06 44 1007.6
20260830192134 66 239 12.0 14.0 0.00 0.06 0.06 41 1007.5
20260830191625 65 269 17.0 18.0 0.00 0.06 0.06 44 1007.5
20260830191120 65 261 16.0 20.0 0.00 0.06 0.06 44 1007.3
20260830190616 64 258 12.0 16.0 0.00 0.06 0.06 44 1007.5
20260830190110 65 263 16.0 21.0 0.00 0.06 0.06 44 1007.5
20260830185608 66 241 18.0 20.0 0.00 0.06 0.06 42 1007.5
20260830185105 65 257 16.0 18.0 0.00 0.06 0.06 41 1007.1
20260830184603 66 255 21.0 24.0 0.00 0.06 0.06 40 1007.5
20260830184059 66 238 18.0 22.0 0.00 0.06 0.06 41 1007.6
20260830183553 66 237 7.0 8.0 0.00 0.06 0.06 42 1007.2
20260830183049 66 242 12.0 15.0 0.00 0.06 0.06 42 1007.5
20260830182544 66 207 7.0 9.0 0.00 0.06 0.06 42 1007.3
20260830182040 66 245 15.0 18.0 0.00 0.06 0.06 40 1007.5
20260830181536 66 244 10.0 11.0 0.00 0.06 0.06 42 1007.6
20260830181035 66 269 15.0 17.0 0.00 0.06 0.06 41 1007.7
20260830180535 66 258 11.0 13.0 0.00 0.06 0.06 42 1007.6
20260830180034 65 245 11.0 13.0 0.00 0.06 0.06 42 1007.6
20260830175533 65 238 12.0 14.0 0.00 0.06 0.06 40 1007.8
20260830175029 65 229 9.0 15.0 0.00 0.06 0.06 40 1007.9
20260830174524 65 286 15.0 17.0 0.00 0.06 0.06 40 1007.6
20260830174019 65 217 8.0 10.0 0.00 0.06 0.06 41 1007.5
20260830173515 65 230 7.0 8.0 0.00 0.06 0.06 42 1007.6
20260830173010 64 209 10.0 14.0 0.00 0.06 0.06 44 1007.6
20260830172507 64 307 15.0 18.0 0.00 0.06 0.06 43 1007.8
20260830172002 64 220 10.0 11.0 0.00 0.06 0.06 44 1007.6
20260830171457 64 253 9.0 11.0 0.00 0.06 0.06 51 1007.8
20260830170957 63 229 9.0 10.0 0.00 0.06 0.06 48 1007.8
20260830170452 63 237 8.0 10.0 0.00 0.06 0.06 51 1008.0
20260830165950 63 198 5.0 8.0 0.00 0.06 0.06 54 1007.9
20260830165447 62 222 7.0 8.0 0.00 0.06 0.06 54 1008.1
20260830164942 62 151 2.0 2.0 0.00 0.06 0.06 62 1008.1
20260830164438 62 214 3.0 6.0 0.00 0.06 0.06 60 1007.9
20260830163934 61 149 5.0 6.0 0.00 0.06 0.06 61 1008.0
20260830163430 61 196 5.0 6.0 0.00 0.06 0.06 57 1008.1
20260830162929 61 214 5.0 6.0 0.00 0.06 0.06 58 1008.0
20260830162426 61 217 5.0 7.0 0.00 0.06 0.06 59 1008.1
20260830161926 61 182 3.0 3.0 0.00 0.06 0.06 60 1008.1
20260830161425 61 140 4.0 6.0 0.00 0.06 0.06 62 1007.9
20260830160920 60 187 2.0 2.0 0.00 0.06 0.06 62 1008.2
20260830160417 60 220 3.0 5.0 0.00 0.06 0.06 63 1007.9
20260830155911 60 193 4.0 5.0 0.00 0.06 0.06 65 1008.3
20260830155408 59 179 2.0 2.0 0.00 0.06 0.06 64 1008.2
20260830154903 59 220 4.0 5.0 0.00 0.06 0.06 57 1008.6
20260830154359 59 181 3.0 3.0 0.00 0.06 0.06 62 1008.2
20260830153855 60 253 8.0 9.0 0.00 0.06 0.06 56 1008.7
20260830153350 60 200 2.0 3.0 0.00 0.06 0.06 59 1008.6
20260830152849 60 164 3.0 5.0 0.00 0.06 0.06 60 1008.2
20260830152344 60 152 2.0 2.0 0.00 0.06 0.06 63 1008.2
20260830151839 60 168 2.0 3.0 0.00 0.06 0.06 63 1008.3
20260830151338 60 149 3.0 3.0 0.00 0.06 0.06 65 1008.4
20260830150833 60 157 1.0 2.0 0.00 0.06 0.06 62 1008.7
20260830150332 60 127 1.0 1.0 0.00 0.06 0.06 61 1008.4
20260830145827 59 130 0.0 0.0 0.00 0.06 0.06 62 1008.7
20260830145322 59 101 2.0 2.0 0.00 0.06 0.06 60 1008.7
20260830144817 58 137 2.0 2.0 0.00 0.06 0.06 71 1008.7
20260830144313 58 128 2.0 2.0 0.00 0.06 0.06 74 1008.7
20260830143809 56 110 0.0 1.0 0.00 0.06 0.06 78 1008.6
20260830143308 56 105 0.0 1.0 0.00 0.06 0.06 85 1008.4
20260830142803 55 130 0.0 0.0 0.00 0.06 0.06 90 1008.3
20260830142258 54 125 0.0 0.0 0.00 0.06 0.06 90 1008.2
20260830141753 54 116 0.0 1.0 0.00 0.06 0.06 90 1008.3